Location: Foligno
(42.9600°N, 12.7050°E)
Time: 07:08:03
(UTC+02:00)

ISS - Pass Details

Date: 25 May 2018
Orbit: 402 x 407 km, 51.6° (Epoch: 21 May)

Event Time Altitude Azimuth Distance (km) Brightness Sun altitude
Rises 02:05:18 0° 305° (NW) 2,320 0.3 -24.7°
Reaches altitude 10° 02:07:26 10° 312° (NW) 1,458 -0.7 -24.6°
Enters shadow 02:08:15 16° 317° (NW) 1,144 -1.2 -24.5°
